Location: Unspecified
(44.3800°N, 0.0000°E)
Time: 12:27:34
(UTC+00:00)

ISS - Visible Passes

Search period start: 21 May 2019 00:00
Search period end: 31 May 2019 00:00
Orbit: 407 x 410 km, 51.6° (Epoch: 21 May)

Date Brightness Start Highest point End Pass type
(mag) Time Alt. Az. Time Alt. Az. Time Alt. Az.
21 May -1.5 00:00:20 10° NW 00:03:09 25° N 00:04:31 19° NE visible
21 May -1.1 01:36:48 10° WNW 01:37:08 12° WNW 01:37:08 12° WNW visible
21 May -1.7 21:31:49 10° W 21:34:46 30° NNW 21:37:45 10° NE visible
21 May -1.3 23:09:18 10° NW 23:12:02 23° N 23:14:14 13° NE visible
22 May -1.4 00:45:53 10° NW 00:46:55 18° NW 00:46:55 18° NW visible
22 May -2.3 20:40:34 10° W 20:43:41 39° NNW 20:46:49 10° NE visible
22 May -1.3 22:18:11 10° NW 22:20:52 22° N 22:23:33 10° NE visible
22 May -1.9 23:54:58 10° NW 23:57:13 30° NNW 23:57:13 30° NNW visible
23 May -1.3 21:26:56 10° WNW 21:29:41 23° N 21:32:26 10° NE visible
23 May -1.8 23:04:02 10° NW 23:06:57 28° NNE 23:07:41 25° NE visible
24 May -1.6 20:35:39 10° WNW 20:38:31 27° NNW 20:41:24 10° NE visible
24 May -1.5 22:13:01 10° NW 22:15:47 24° N 22:18:12 12° ENE visible
24 May -1.6 23:49:31 10° NW 23:50:55 23° NW 23:50:55 23° NW visible
25 May -1.4 21:21:54 10° NW 21:24:35 22° N 21:27:17 10° ENE visible
25 May -2.5 22:58:34 10° NW 23:01:29 40° N 23:01:29 40° N visible
26 May -1.4 20:30:41 10° WNW 20:33:23 23° N 20:36:05 10° NE visible
26 May -2.1 22:07:37 10° NW 22:10:37 31° NNE 22:12:04 21° ENE visible
26 May -1.2 23:44:05 10° WNW 23:44:47 15° WNW 23:44:47 15° WNW visible
27 May -1.7 21:16:36 10° NW 21:19:26 25° N 21:22:16 10° ENE visible
27 May -2.7 22:53:04 10° WNW 22:55:23 42° NW 22:55:23 42° NW visible
28 May -1.5 20:25:30 10° NW 20:28:13 23° N 20:30:55 10° ENE visible
28 May -3.1 22:02:03 10° NW 22:05:18 50° NNE 22:06:01 40° ENE visible
29 May -2.4 21:11:04 10° NW 21:14:09 35° NNE 21:16:41 14° E visible
29 May -2.1 22:47:37 10° WNW 22:49:23 27° W 22:49:23 27° W visible
30 May -2.0 20:20:03 10° NW 20:22:58 28° NNE 20:25:52 10° ENE visible
30 May -4.0 21:56:29 10° WNW 21:59:48 81° SW 22:00:04 72° SSE visible
